Погода в Луше

Португалия     37°05′20″N   8°43′55″W
темп.,
°C
ветер,
м/с
пор.,
м/с
влажн.,
%
обл.,
%
осадки,
мм/ч
давл.,
гПа
погр.,
м
8 декабря, ср
ср800:00+17з10148878 0.4 1021770
03:00+15ссз10137580 0.7 10211113
06:00+15сз712602 0.7 10221321
09:00+15ссз8117165 0.4 10241253
12:00+16сз10115999 0.4 10251816
15:00+15сз10126214 0.1 10241658
18:00+15ссз913647 0.1 10261499
21:00+14ссз811685 0.0 10281150
9 декабря, чт
чт900:00+14ссз59745 0.1 1028794
03:00+14с610724 0.0 1028844
06:00+13с48780 0.0 1028467
09:00+13ссз46775 0.0 1030326
12:00+16сз796714 0.0 10301132
15:00+16сз8107212 0.1 10281136
18:00+16сз7117895 0.1 1029803
21:00+15ссз6108114 0.1 1029745
10 декабря, пт
пт1000:00+15ссз59820 0.1 1028575
03:00+15ссз59780 0.0 1028655
06:00+15сз58741 0.0 1027751
09:00+16ссз59750 0.0 1028767
12:00+17ссз79710 0.0 1028933
15:00+17ссз797516 0.0 1027847
18:00+15сз6108774 0.0 1026573
21:00+16ссз5108298 0.0 1027560
11 декабря, сб
сб1100:00+16ссз610878 0.1 1026557
03:00+15ссз7118638 0.0 1025559
06:00+14ссз7138583 0.0 1025538
09:00+15с5107375 0.0 1026512
12:00+17ссв35624 0.0 1025286
15:00+19с24635 0.0 1023239
18:00+18с33685 0.0 102339
21:00+16ссв34725 0.0 102475
12 декабря, вс
вс1200:00+15ссв46753 0.0 1024170
03:00+15св56751 0.0 1024151
06:00+16св59715 0.0 1023314
09:00+16всв712625 0.0 1025521
12:00+17в810600 0.0 1024472
15:00+16вюв67683 0.0 1023271
18:00+16в35760 0.0 1024118
21:00+16св33710 0.0 1025100